This is the latest recevied weather packets stored in our database for station/object K0WOI. If no packets are shown the sender has not sent any weather packets the latest 10 day(s).
| Time | Temp. | Humidity | Pressure | Rain* | Wind** | Luminosity | Snow |
|---|---|---|---|---|---|---|---|
| 1777514552 | 7.78° C | 76% | 1017.2 hPa | 0 mm | - | 0 W/m² | - |
| 1777514251 | 7.78° C | 72% | 1017.1 hPa | 0 mm | - | 0 W/m² | - |
| 1777513946 | 7.78° C | 68% | 1017 hPa | 0 mm | - | 0 W/m² | - |
| 1777513644 | 8.33° C | 66% | 1017 hPa | 0 mm | - | 0 W/m² | - |
| 1777513341 | 8.89° C | 63% | 1017 hPa | 0 mm | - | 0 W/m² | - |
| 1777513036 | 8.89° C | 63% | 1017 hPa | 0 mm | - | 0 W/m² | - |
| 1777512733 | 9.44° C | 66% | 1017.1 hPa | 0 mm | - | 0 W/m² | - |
| 1777512430 | 10° C | 60% | 1017 hPa | 0 mm | - | 0 W/m² | - |
| 1777512126 | 10° C | 57% | 1017.1 hPa | 0 mm | - | 0 W/m² | - |
| 1777511825 | 10.56° C | 56% | 1017.1 hPa | 0 mm | - | 0 W/m² | - |
| 1777511521 | 11.11° C | 55% | 1017.1 hPa | 0 mm | - | 1 W/m² | - |
| 1777511218 | 11.67° C | 50% | 1017.4 hPa | 0 mm | - | 2 W/m² | - |
| 1777510914 | 11.67° C | 47% | 1017.2 hPa | 0 mm | - | 5 W/m² | - |
| 1777510611 | 12.22° C | 46% | 1017.2 hPa | 0 mm | - | 9 W/m² | - |
| 1777510307 | 12.22° C | 47% | 1017 hPa | 0 mm | - | 11 W/m² | - |
| 1777510004 | 12.78° C | 48% | 1016.9 hPa | 0 mm | - | 14 W/m² | - |
| 1777509699 | 12.78° C | 47% | 1016.9 hPa | 0 mm | - | 16 W/m² | - |
| 1777509396 | 12.78° C | 45% | 1017 hPa | 0 mm | - | 19 W/m² | - |
| 1777509093 | 12.78° C | 46% | 1016.9 hPa | 0 mm | - | 18 W/m² | - |
| 1777508790 | 13.33° C | 46% | 1017.2 hPa | 0 mm | - | 21 W/m² | - |
| 1777508487 | 13.89° C | 43% | 1016.9 hPa | 0 mm | - | 23 W/m² | - |
| 1777508185 | 13.89° C | 40% | 1017 hPa | 0 mm | - | 28 W/m² | - |
| 1777507881 | 14.44° C | 39% | 1016.9 hPa | 0 mm | - | 35 W/m² | - |
| 1777507578 | 15° C | 38% | 1016.8 hPa | 0 mm | - | 39 W/m² | - |
| 1777507275 | 15° C | 38% | 1017.2 hPa | 0 mm | - | 41 W/m² | - |
* Rain latest hour (hover to see other rain measurements)
** Current wind speed in m/s (hover to see current wind gust speed)